DateTimeUTC,F1_A11,F1_S11,BsB_S11,BsG_S11,BsR_S11,BbsB_S11,BbsG_S11,BbsR_S11,BaB_A11,BaG_A11,BaR_A11,Tu_S11,T_S11,Uu_S11,U_S11,P_S11,T1_A11
2021-08-19T07:00:00Z,00000200,20000000,,,,,,,0000.47,0000.55,0000.27,19.6,26.3,13.5,09.0,0676.3,31.1
2021-08-19T07:01:00Z,00000200,20000000,,,,,,,-000.28,-000.44,-000.23,19.6,26.3,13.4,08.9,0676.3,31.1
2021-08-19T07:02:00Z,00000200,20000000,,,,,,,0000.08,0000.06,-000.11,19.6,26.3,13.4,08.9,0676.3,31.1
2021-08-19T07:03:00Z,00000200,60000000,,,,,,,-000.00,-000.28,0000.32,19.6,26.3,13.4,08.9,0676.3,31.1
2021-08-19T07:04:00Z,00000200,40000000,0000.24,-000.02,0000.02,0000.24,-000.23,0000.05,-000.22,-000.11,-000.49,19.7,26.2,13.3,09.0,0677.2,31.1
2021-08-19T07:05:00Z,00000200,00000000,-000.53,0000.03,0000.06,-000.09,0000.15,0000.30,0000.34,0000.11,-000.02,19.8,26.1,13.3,09.0,0677.3,31.1
2021-08-19T07:06:00Z,00000200,00000000,-000.04,-000.33,-000.19,0000.33,-000.17,0000.01,-000.15,0000.24,0000.36,19.8,26.1,13.4,09.1,0677.3,31.1
2021-08-19T07:07:00Z,00000200,00000000,-000.37,-000.02,-000.03,-000.43,0000.15,-000.27,0000.05,-000.20,0000.05,19.8,26.1,13.5,09.3,0677.3,31.1
2021-08-19T07:08:00Z,00000200,00000000,-000.49,0000.04,-000.00,-000.24,0000.19,-000.13,-000.10,0000.24,-000.03,19.8,26.1,13.5,09.2,0677.3,31.1
2021-08-19T07:09:00Z,00000200,00000000,0000.13,-000.18,0000.03,-000.37,-000.06,-000.11,0000.21,-000.23,-000.15,19.8,26.1,13.5,09.3,0677.3,31.1
2021-08-19T07:10:00Z,00000200,00000000,0000.08,0000.23,-000.15,-000.21,0000.14,-000.16,-000.39,0000.06,0000.01,19.8,26.1,13.5,09.3,0677.3,31.1
2021-08-19T07:11:00Z,00000200,00000000,-000.02,-000.32,-000.30,-000.11,0000.15,-000.06,0000.17,-000.19,0000.04,19.8,26.1,13.5,09.3,0677.3,31.1
2021-08-19T07:12:00Z,00000200,00000000,0000.62,0000.40,0000.10,0000.19,-000.03,0000.00,-000.18,0000.33,0000.15,19.8,26.1,13.6,09.3,0677.3,31.1
2021-08-19T07:13:00Z,00000200,00000000,-000.15,0000.04,0000.05,-000.00,-000.02,0000.24,0000.39,-000.11,-000.19,19.8,26.1,13.5,09.3,0677.3,31.1
2021-08-19T07:14:00Z,00000200,00000000,-000.25,-000.33,-000.16,-000.40,-000.01,0000.29,-000.31,-000.15,-000.14,19.8,26.1,13.4,09.2,0677.3,31.1
2021-08-19T07:15:00Z,00000200,00000000,-000.15,-000.07,0000.15,0000.25,-000.16,0000.01,0000.18,-000.16,-000.18,19.8,26.1,13.4,09.2,0677.3,31.1
2021-08-19T07:16:00Z,00000200,00000000,0000.19,0000.04,0000.01,0000.30,0000.30,0000.20,-000.15,0000.27,0000.29,19.9,26.1,13.4,09.2,0677.3,31.1
2021-08-19T07:17:00Z,00000200,00000000,-000.04,-000.11,-000.04,-000.74,0000.41,-000.13,-000.04,-000.06,0000.02,19.8,26.1,13.4,09.2,0677.3,31.1
2021-08-19T07:18:00Z,00000200,00000000,0000.21,-000.06,-000.03,-000.36,0000.09,0000.29,0000.34,-000.14,-000.21,19.8,26.1,13.5,09.3,0677.3,31.1
2021-08-19T07:19:00Z,00000200,00000000,0000.57,0000.11,-000.24,0000.41,0000.11,-000.16,-000.40,-000.02,0000.28,19.9,26.1,13.3,09.2,0677.3,31.1
2021-08-19T07:20:00Z,00000200,00000000,0000.44,0000.29,-000.04,-000.27,-000.13,-000.30,0000.48,0000.42,-000.09,19.9,26.1,13.4,09.2,0677.3,31.1
2021-08-19T07:21:00Z,00000200,00000000,0001.35,-000.17,0000.08,0000.60,0000.21,-000.11,-000.19,-000.33,-000.09,19.9,26.1,13.4,09.2,0677.3,31.1
2021-08-19T07:22:00Z,00000200,00000000,-000.05,0000.01,0000.14,0000.03,0000.01,-000.26,0000.01,0000.05,0000.36,19.8,26.1,13.4,09.2,0677.3,31.1
2021-08-19T07:23:00Z,00000200,00000000,0000.04,0000.19,-000.17,0000.40,0000.04,-000.22,-000.08,-000.12,-000.21,19.9,26.1,13.4,09.2,0677.3,31.1
2021-08-19T07:24:00Z,00000200,00000000,0000.49,0000.03,0000.07,-000.47,-000.06,-000.18,0000.26,0000.03,-000.06,19.9,26.1,13.4,09.2,0677.3,31.1
2021-08-19T07:25:00Z,00000200,00000000,-000.59,0000.23,-000.07,0000.07,0000.13,-000.17,-000.24,-000.07,0000.05,19.9,26.1,13.5,09.2,0677.3,31.1
2021-08-19T07:26:00Z,00000200,00000000,-000.59,-000.08,-000.04,0000.07,0000.08,0000.31,0000.00,0000.15,0000.19,19.9,26.1,13.4,09.2,0677.3,31.1
2021-08-19T07:27:00Z,00000200,00000000,0000.51,-000.14,-000.38,-000.29,0000.01,-000.09,0000.01,0000.10,0000.03,19.9,26.1,13.4,09.2,0677.3,31.1
2021-08-19T07:28:00Z,00000200,00000000,-000.29,0000.17,-000.33,-000.36,0000.19,-000.19,-000.02,0000.06,0000.13,19.9,26.1,13.5,09.3,0677.3,31.1
2021-08-19T07:29:00Z,00000200,00000000,0000.40,0000.12,-000.01,0000.15,-000.11,-000.07,0000.15,-000.18,-000.18,19.9,26.1,13.6,09.4,0677.3,31.1
2021-08-19T07:30:00Z,00000200,00000000,0000.33,-000.31,0000.17,0000.10,-000.02,0000.01,-000.05,0000.16,0000.11,19.8,26.1,13.6,09.4,0677.3,31.1
2021-08-19T07:31:00Z,00000200,00000000,-000.10,-000.18,0000.07,-000.23,0000.22,0000.01,0000.10,-000.08,-000.13,19.9,26.1,13.7,09.4,0677.3,31.1
2021-08-19T07:32:00Z,00000200,00000000,0000.54,-000.03,0000.02,0000.19,0000.08,0000.05,0000.17,0000.56,0000.18,19.9,26.0,13.7,09.4,0677.3,31.1
2021-08-19T07:33:00Z,00000200,00000000,0000.34,-000.14,-000.02,-000.03,0000.13,0000.11,-000.36,-000.68,-000.02,19.9,26.1,13.7,09.4,0677.3,31.1
2021-08-19T07:34:00Z,00000200,00000000,-000.61,0000.02,0000.04,0000.03,-000.13,-000.23,0000.36,0000.43,0000.07,19.9,26.1,13.9,09.5,0677.3,31.1
2021-08-19T07:35:00Z,00000200,00000000,-000.46,0000.12,-000.25,-000.01,0000.26,-000.10,0000.05,-000.38,-000.21,19.9,26.1,13.8,09.5,0677.3,31.1
2021-08-19T07:36:00Z,00000200,00000000,-000.25,0000.03,0000.04,-000.24,0000.19,0000.10,-000.31,-000.05,-000.36,19.9,26.1,13.8,09.5,0677.3,31.1
2021-08-19T07:37:00Z,00000200,00000000,0000.30,0000.13,-000.04,-001.12,-000.09,0000.10,0000.23,0000.02,0000.36,19.9,26.1,13.8,09.5,0677.3,31.1
2021-08-19T07:38:00Z,00000200,00000000,0000.01,-000.31,-000.10,-000.40,0000.17,0000.04,-000.25,0000.01,-000.21,19.9,26.1,13.8,09.5,0677.3,31.1
2021-08-19T07:39:00Z,00000200,00000000,-000.22,-000.09,-000.10,0000.11,-000.40,-000.29,0000.12,-000.01,0000.14,19.9,26.1,13.8,09.5,0677.3,31.1
2021-08-19T07:40:00Z,00000200,00000000,0000.09,0000.05,-000.27,0000.20,0000.08,-000.25,-000.32,0000.33,0000.24,19.9,26.1,13.7,09.4,0677.3,31.1
2021-08-19T07:41:00Z,00000200,00000000,0000.11,-000.01,0000.05,0000.47,0000.17,-000.07,0000.17,-000.03,0000.02,19.9,26.1,13.8,09.5,0677.3,31.1
2021-08-19T07:42:00Z,00000200,00000000,0000.55,0000.09,-000.46,-000.24,0000.07,-000.40,0000.38,0000.09,-000.45,19.9,26.0,13.9,09.5,0677.3,31.1
2021-08-19T07:43:00Z,00000200,00000000,0000.37,-000.04,0000.10,0000.11,-000.14,-000.04,-000.25,-000.13,0000.35,19.9,26.1,13.9,09.5,0677.3,31.1
2021-08-19T07:44:00Z,00000200,00000000,0000.64,-000.12,-000.12,-000.11,0000.08,0000.07,0000.01,-000.04,-000.05,19.9,26.1,13.8,09.4,0677.3,31.1
2021-08-19T07:45:00Z,00000200,00000000,0000.12,-000.31,-000.00,-000.43,0000.17,0000.30,0000.29,0000.16,0000.25,19.9,26.1,13.9,09.5,0677.3,31.1
2021-08-19T07:46:00Z,00000200,00000000,-000.67,0000.00,-000.36,0000.53,0000.41,-000.16,-000.20,-000.14,-000.21,19.9,26.1,13.9,09.6,0677.3,31.1
2021-08-19T07:47:00Z,00000200,00000000,-000.29,-000.20,0000.03,0000.08,0000.07,0000.22,-000.12,0000.07,-000.02,19.9,26.1,14.0,09.6,0677.3,31.1
2021-08-19T07:48:00Z,00000200,00000000,0000.19,0000.22,-000.08,-000.21,-000.26,0000.17,0000.14,-000.02,-000.15,19.9,26.1,13.9,09.6,0677.3,31.1
2021-08-19T07:49:00Z,00000200,00000000,0000.33,0000.23,-000.12,0000.11,0000.18,-000.10,0000.06,0000.03,0000.10,19.9,26.1,13.9,09.6,0677.3,31.1
2021-08-19T07:50:00Z,00000200,00000000,-000.18,-000.08,-000.21,0000.38,0000.14,0000.06,-000.03,0000.28,0000.24,19.9,26.1,14.0,09.6,0677.3,31.1
2021-08-19T07:51:00Z,00000200,00000000,0000.31,0000.08,0000.26,-000.00,0000.11,-000.12,0000.20,0000.06,-000.21,19.9,26.1,13.9,09.6,0677.3,31.1
2021-08-19T07:52:00Z,00000200,00000000,-000.64,-000.16,0000.20,0000.11,-000.12,-000.08,-000.06,-000.33,-000.25,19.9,26.1,13.9,09.6,0677.3,31.1
2021-08-19T07:53:00Z,00000200,00000000,-000.03,-000.07,-000.05,-000.36,-000.01,-000.26,-000.14,-000.14,-000.12,19.9,26.1,13.9,09.6,0677.2,31.1
2021-08-19T07:54:00Z,00000200,00000000,-000.37,-000.30,0000.21,0000.15,-000.16,0000.14,-000.13,0000.04,0000.36,19.9,26.1,14.0,09.6,0677.3,31.1
2021-08-19T07:55:00Z,00000200,00000000,0000.27,0000.08,-000.06,0000.26,-000.02,-000.14,0000.27,0000.21,-000.19,19.9,26.1,14.0,09.6,0677.3,31.1
2021-08-19T07:56:00Z,00000200,00000000,0000.12,-000.18,-000.16,0000.45,0000.18,0000.07,0000.01,-000.33,0000.03,19.9,26.1,13.9,09.6,0677.3,31.1
2021-08-19T07:57:00Z,00000200,40000000,,,,,,,-000.49,0000.10,0000.05,19.9,26.1,13.7,09.4,0677.3,31.1
2021-08-19T07:58:00Z,00000200,60000000,,,,,,,0000.35,0000.47,-000.25,19.7,26.2,14.1,09.5,0676.3,31.1
2021-08-19T07:59:00Z,00000200,20000000,,,,,,,-000.10,-000.41,0000.26,19.7,26.3,14.0,09.4,0676.2,31.1
